Wind_Speed
2 2 2 2 3 3 3 3 3 2 2 3 4 4 4 3 3 3 3 4 4 3 4 4 5 5 4 4 4 5 5 6 5 5 5 5 5 6 6 6 6 7 7 7 7 8 9 9 9
3 3 4 4 4 4 5 5 4 4 4 4 4 4 3 3 4 4 4 4 4 4 4 4 5 6 5 5 5 6 6 6 5 5 5 6 6 6 7 7 8 8 8 8 8 9 10 10 10
4 5 5 5 6 6 6 7 6 5 5 5 4 4 4 4 4 5 5 5 5 4 4 4 5 6 6 6 6 6 6 6 6 6 6 6 7 7 7 8 8 9 9 8 8 8 9 10 10
6 6 7 7 7 7 7 7 6 5 5 5 5 5 5 5 5 6 5 5 4 4 4 4 4 5 5 6 6 6 6 7 7 6 6 6 7 7 8 8 9 9 8 9 9 9 9 9 9
7 8 8 8 8 7 7 6 5 5 6 6 6 6 6 6 6 6 5 5 4 4 4 4 5 5 5 6 6 6 6 7 7 7 7 7 8 8 8 8 8 8 8 8 8 9 9 9 9
9 9 9 9 9 8 8 6 6 6 6 6 7 7 7 7 6 7 7 6 5 5 5 5 5 5 5 6 6 7 6 6 7 7 7 6 7 7 7 7 8 8 8 8 8 9 9 9 10
10 10 10 10 9 8 8 7 7 7 7 7 8 8 8 8 7 7 8 7 6 6 6 5 6 6 6 6 7 6 6 6 6 6 6 5 5 6 6 7 7 7 8 8 8 8 8 8 9
11 11 11 11 10 9 9 8 8 8 9 9 9 9 9 9 9 8 8 8 7 6 6 6 6 5 5 6 6 6 6 5 5 5 5 5 5 5 6 6 7 7 7 7 8 8 8 8 9
11 11 11 11 11 10 10 9 9 9 10 10 10 10 9 9 9 8 7 7 8 8 7 7 6 6 6 6 6 6 6 5 5 5 5 5 5 5 5 6 7 7 6 6 7 7 8 8 8
12 12 12 11 12 11 11 10 10 10 10 10 10 10 9 9 8 8 7 7 7 8 7 7 6 5 5 5 5 5 5 5 4 5 5 5 4 4 5 5 5 5 5 5 5 6 7 7 8
13 13 13 13 12 12 11 11 12 12 11 11 10 10 9 9 8 8 8 7 7 7 7 7 6 6 5 5 4 4 4 4 4 4 4 4 4 4 5 5 4 5 5 5 5 6 6 6 6
13 13 14 12 13 12 12 12 13 13 12 12 12 11 9 8 9 8 8 7 7 7 7 7 7 6 5 4 4 3 2 2 3 3 3 3 4 4 4 4 4 4 4 4 4 4 4 5 5
13 13 14 13 12 13 12 12 13 12 13 13 12 12 10 9 9 9 8 8 7 7 7 7 6 6 5 4 3 2 1 1 2 2 2 3 3 3 4 3 4 4 4 3 3 3 3 4 4
13 13 13 13 13 13 13 13 13 12 13 13 13 12 11 10 9 9 9 8 8 7 7 6 6 6 5 3 3 2 1 1 1 1 2 2 3 3 3 4 3 3 3 3 3 3 3 2 2
14 14 13 13 14 14 14 14 14 13 13 13 13 12 12 10 9 9 9 8 8 8 8 6 6 6 5 4 3 2 1 1 1 1 1 2 3 3 3 4 3 3 3 3 2 2 2 2 1
14 14 14 14 14 14 14 14 14 13 13 13 13 12 11 11 10 9 9 8 8 8 7 7 6 6 5 4 3 2 1 1 0 0 1 2 3 3 3 3 4 4 3 3 2 2 3 2 1
14 14 14 14 14 14 14 13 14 14 13 13 13 12 11 11 11 10 10 9 9 8 8 8 7 7 6 4 2 2 1 1 2 1 2 2 3 4 3 3 4 4 4 4 3 3 3 3 2
14 15 15 14 14 13 13 13 13 14 13 13 12 12 12 12 11 11 11 10 10 10 9 8 8 7 6 5 4 3 2 2 2 2 2 3 4 4 4 4 4 5 5 4 4 4 4 4 3
14 14 14 13 13 13 13 13 13 13 13 13 12 12 12 11 11 11 11 11 10 10 10 10 9 7 6 6 5 4 2 2 2 2 2 3 3 4 4 4 5 5 5 5 4 4 4 4 4
14 14 14 13 12 12 12 13 13 13 12 12 12 11 12 12 11 11 11 10 10 11 12 11 10 8 7 6 5 4 3 3 2 2 3 3 3 4 4 4 4 5 5 5 5 4 5 5 5
13 13 13 13 12 12 12 12 12 12 12 12 12 12 13 13 13 12 12 11 11 11 13 12 11 9 8 7 6 5 4 4 3 3 2 3 3 4 4 4 4 5 5 6 5 5 5 6 5
12 13 13 13 12 12 12 11 11 11 11 11 12 12 12 12 12 12 12 12 11 11 12 13 12 10 9 9 8 6 6 4 3 3 2 2 3 3 4 4 4 4 5 5 5 5 6 6 5
12 12 13 13 13 12 12 12 10 10 9 10 11 12 13 12 12 12 13 13 13 13 13 13 12 11 10 10 9 8 7 5 4 3 2 2 3 3 4 4 4 5 5 6 6 6 6 6 6
12 13 13 12 12 12 11 11 9 9 9 10 11 12 12 13 13 13 13 14 14 14 15 14 13 12 12 11 10 9 8 6 5 4 3 2 2 3 3 4 4 5 5 6 6 6 6 6 5
12 12 12 12 12 11 11 11 8 9 9 10 10 11 12 14 14 14 14 14 14 15 15 15 14 13 12 12 11 9 8 7 6 5 4 3 2 2 3 3 4 4 5 5 5 6 6 5 5
11 11 11 11 11 11 11 10 9 8 8 9 9 10 12 13 13 14 15 15 15 15 15 15 14 13 13 12 12 10 9 8 7 6 4 3 2 2 2 3 3 4 4 5 5 5 5 5 4
11 11 12 12 11 11 10 10 9 9 8 8 8 9 11 13 12 13 15 16 17 16 16 16 14 14 13 13 12 11 10 9 8 7 5 4 3 2 2 3 3 4 4 4 4 4 4 4 3
12 12 12 12 11 11 10 10 9 8 8 7 8 9 11 12 12 13 15 17 17 17 17 16 16 15 14 13 13 12 11 10 9 8 7 6 4 3 2 3 3 3 3 3 3 3 3 3 3
13 13 13 12 12 11 10 9 8 7 7 7 8 9 10 11 12 13 15 16 17 18 18 16 16 16 14 14 14 13 12 11 10 9 8 7 6 5 3 3 2 2 2 2 2 3 3 3 2
13 13 13 12 12 12 12 10 9 7 6 7 8 9 10 11 13 14 15 17 17 17 17 17 16 16 15 14 14 13 13 12 12 11 10 9 8 7 5 4 3 2 1 1 0 1 1 2 2
Wind_Direction
234 230 242 253 261 273 267 273 287 276 271 268 273 264 260 274 276 272 256 247 249 251 244 236 241 247 250 259 268 272 278 281 278 270 270 274 279 280 276 276 276 277 272 267 259 255 255 252 252
248 249 258 264 264 264 257 269 282 277 267 269 274 276 272 276 281 275 263 257 263 248 238 235 244 246 255 264 270 272 276 280 273 267 266 272 279 281 279 277 275 276 274 269 265 263 260 258 254
258 261 264 267 266 270 269 272 277 275 272 269 278 286 284 282 279 270 265 261 265 246 236 241 253 257 256 261 271 275 277 276 272 269 268 272 278 280 279 278 276 275 273 270 269 268 266 265 260
263 264 265 267 266 269 275 277 277 274 277 277 277 280 281 282 281 272 265 263 269 257 250 256 261 263 262 265 269 278 277 276 276 269 273 277 281 283 283 280 276 274 269 270 271 269 268 268 263
264 266 269 271 270 269 274 275 274 275 274 275 278 279 279 279 277 274 273 269 270 269 263 267 268 269 270 271 272 278 283 283 276 273 275 278 282 286 286 282 275 272 272 270 267 266 266 267 264
264 265 268 272 273 273 279 272 272 277 272 274 276 279 280 277 277 273 273 270 269 268 268 268 269 265 266 271 275 278 282 290 288 281 280 284 286 286 284 282 277 272 269 266 267 267 268 267 265
263 265 266 270 272 271 276 278 276 277 277 278 279 279 279 275 275 271 268 268 264 263 266 267 265 263 262 269 275 275 280 289 291 292 290 291 290 286 288 286 281 276 270 271 270 270 270 269 269
264 266 268 268 268 266 270 273 276 278 276 275 275 277 275 272 272 271 265 264 267 269 266 257 258 266 269 268 272 274 286 292 289 292 297 299 296 293 293 295 292 286 280 275 270 270 273 272 270
263 265 266 267 265 267 268 268 272 274 275 277 278 276 275 275 273 273 263 261 266 270 267 258 258 268 273 275 277 279 285 291 293 293 300 300 300 296 296 302 301 292 285 279 274 274 275 273 270
260 263 265 266 264 263 266 268 268 269 274 278 277 274 272 271 272 273 267 259 257 258 260 259 266 272 280 280 281 283 284 286 294 300 308 306 306 308 311 321 317 305 295 289 282 277 273 271 269
260 262 266 266 265 264 265 267 267 268 271 273 272 271 271 266 270 273 270 262 254 252 250 249 251 258 268 276 276 281 283 288 300 307 311 321 323 321 321 322 324 323 312 301 291 281 274 268 268
260 262 265 266 265 267 267 267 269 270 269 268 267 265 264 259 262 265 260 256 251 251 248 245 252 249 254 262 265 271 291 311 320 316 319 326 325 330 332 330 330 327 322 314 301 291 280 270 270
261 262 264 265 267 269 270 268 269 268 266 267 266 262 261 258 257 262 258 254 251 245 240 243 248 243 243 243 245 253 269 307 313 328 330 338 340 340 341 339 338 333 334 329 323 317 299 285 275
262 263 263 265 267 269 271 270 268 267 268 268 266 261 260 251 253 255 253 256 248 237 232 234 236 229 223 224 240 245 254 312 288 297 334 347 346 346 353 353 347 352 351 350 351 345 331 322 296
261 262 262 265 266 266 267 267 266 265 267 268 267 263 254 245 247 244 248 253 246 229 226 226 222 219 201 205 232 258 257 225 271 303 2 7 4 0 3 6 13 19 15 4 358 2 359 357 352
261 262 263 264 264 264 264 266 265 264 265 266 267 263 253 248 245 240 239 241 238 223 216 215 214 208 196 200 222 232 224 201 174 75 31 19 17 15 21 29 33 32 27 22 21 29 27 29 51
264 264 264 262 262 262 262 263 265 263 262 264 264 260 254 248 245 242 238 236 231 222 210 206 203 202 198 203 209 210 182 136 116 86 55 37 36 39 41 36 35 31 35 39 42 46 46 62 84
266 264 264 261 263 262 261 261 265 264 260 259 258 258 255 248 247 243 237 231 230 224 210 207 199 199 196 194 195 185 164 145 114 88 69 53 51 51 47 39 35 34 40 44 52 55 55 65 84
264 264 264 264 265 265 263 261 264 263 259 258 260 255 249 242 241 237 232 229 225 219 212 205 201 198 195 195 194 187 172 156 131 99 76 67 60 53 43 39 40 42 46 49 59 65 68 69 80
264 264 265 265 265 265 266 265 260 257 257 256 257 249 239 233 233 233 230 221 217 215 210 206 204 202 201 204 201 195 183 167 142 107 83 71 63 54 45 48 48 51 55 59 64 72 77 83 84
265 265 266 267 265 262 263 263 260 255 255 253 252 246 238 231 227 231 226 218 214 212 209 207 206 203 200 201 200 195 184 174 154 127 99 74 60 52 53 57 57 56 56 60 67 76 82 88 87
265 261 264 266 264 263 263 260 260 259 253 253 252 247 237 229 225 226 223 218 215 209 207 205 204 201 201 199 198 196 189 180 167 146 114 80 66 55 52 59 64 64 63 66 74 82 90 87 88
261 259 263 265 263 264 264 263 258 259 255 250 248 242 236 231 228 226 223 221 218 213 208 206 204 203 202 201 200 198 194 192 184 170 143 104 76 64 55 58 65 69 71 74 79 85 89 86 87
260 260 260 261 262 262 263 264 253 254 254 250 245 239 235 231 227 224 223 221 217 215 211 206 202 202 203 204 205 203 200 198 190 181 164 134 100 77 65 62 68 72 76 80 80 83 85 84 84
258 258 256 255 258 261 262 259 255 253 253 250 242 236 230 229 227 226 223 219 214 213 209 203 201 201 203 205 203 200 200 196 189 182 170 150 124 94 76 73 73 72 78 83 85 81 81 83 81
254 256 256 258 260 262 261 260 262 258 252 248 244 233 225 223 224 224 219 214 209 210 207 200 200 202 204 202 199 200 201 198 192 190 186 177 158 124 93 90 84 80 83 88 86 83 81 81 80
250 252 256 256 259 262 258 258 259 259 253 243 236 227 221 221 219 218 215 211 205 205 201 201 201 202 203 203 201 202 204 202 197 194 193 190 178 161 133 105 97 93 89 85 84 80 79 82 79
247 249 250 255 262 264 259 257 253 248 242 239 230 218 219 216 214 213 211 207 203 201 200 201 202 202 203 204 204 204 205 203 200 198 198 197 190 180 162 137 123 108 94 86 79 72 70 72 75
246 248 250 254 260 265 263 255 254 251 236 233 226 217 217 213 210 205 204 203 203 203 201 203 206 205 205 206 206 205 207 206 205 203 202 201 197 189 183 173 155 134 116 94 75 60 58 60 55
246 247 249 252 258 262 264 253 254 249 233 229 224 217 214 211 210 205 205 205 204 203 202 205 206 207 208 208 207 207 208 208 208 206 206 206 206 206 207 205 203 195 182 158 110 22 23 16 7
Height
5897 5897 5897 5898 5898 5898 5897 5897 5896 5896 5897 5896 5896 5896 5896 5896 5897 5899 5896 5895 5895 5895 5895 5895 5895 5895 5895 5895 5895 5895 5895 5894 5894 5894 5894 5894 5893 5893 5892 5892 5891 5891 5890 5890 5889 5889 5889 5889 5889
5896 5896 5897 5897 5896 5896 5896 5895 5895 5895 5896 5895 5895 5895 5895 5895 5895 5895 5894 5894 5894 5894 5894 5894 5894 5894 5894 5894 5894 5894 5894 5894 5893 5893 5893 5893 5892 5892 5891 5890 5890 5889 5889 5888 5888 5888 5887 5887 5887
5895 5895 5896 5895 5895 5895 5895 5894 5894 5894 5894 5894 5894 5894 5894 5895 5894 5893 5893 5893 5892 5892 5893 5893 5893 5893 5893 5893 5893 5893 5893 5893 5892 5892 5892 5891 5891 5890 5890 5889 5888 5888 5887 5887 5886 5886 5886 5885 5885
5894 5894 5894 5894 5893 5894 5893 5893 5893 5893 5893 5893 5893 5893 5893 5894 5893 5892 5892 5892 5892 5892 5892 5892 5892 5892 5892 5893 5893 5892 5892 5892 5891 5891 5890 5890 5889 5889 5888 5887 5886 5886 5885 5885 5884 5884 5884 5883 5883
5892 5892 5892 5892 5892 5892 5892 5892 5892 5892 5892 5892 5892 5892 5892 5892 5891 5891 5891 5891 5891 5891 5891 5891 5891 5891 5891 5892 5891 5891 5891 5890 5890 5889 5889 5888 5888 5887 5886 5885 5884 5884 5883 5883 5882 5882 5882 5881 5881
5890 5890 5890 5890 5890 5890 5890 5890 5890 5890 5890 5890 5891 5890 5890 5891 5890 5890 5889 5890 5889 5890 5890 5890 5890 5890 5890 5890 5890 5890 5889 5889 5888 5888 5887 5887 5886 5885 5884 5883 5883 5882 5881 5881 5880 5880 5879 5879 5878
5888 5888 5888 5888 5888 5888 5889 5888 5889 5888 5889 5889 5889 5889 5888 5889 5889 5888 5888 5888 5888 5888 5888 5889 5889 5889 5889 5889 5889 5889 5888 5888 5887 5887 5886 5885 5884 5883 5882 5881 5881 5880 5879 5879 5878 5877 5877 5876 5876
5886 5886 5885 5886 5886 5886 5887 5886 5886 5887 5887 5887 5887 5887 5887 5887 5887 5887 5887 5886 5886 5887 5887 5887 5888 5888 5888 5888 5888 5888 5887 5887 5886 5885 5885 5884 5883 5882 5881 5880 5879 5878 5877 5876 5876 5875 5875 5874 5874
5883 5885 5883 5884 5884 5884 5884 5884 5885 5884 5884 5884 5884 5885 5885 5885 5885 5885 5885 5885 5885 5885 5886 5886 5886 5886 5886 5886 5886 5886 5886 5885 5885 5884 5883 5882 5881 5880 5879 5878 5877 5876 5875 5874 5874 5873 5873 5872 5872
5881 5881 5881 5881 5881 5881 5882 5882 5882 5882 5882 5882 5882 5882 5882 5883 5883 5883 5883 5883 5884 5884 5884 5884 5885 5885 5885 5885 5885 5885 5885 5884 5884 5883 5882 5881 5880 5879 5878 5877 5875 5874 5873 5872 5872 5871 5871 5870 5870
5878 5879 5879 5878 5878 5879 5879 5879 5879 5880 5880 5880 5880 5880 5880 5881 5881 5881 5881 5881 5882 5882 5883 5883 5883 5884 5884 5884 5884 5884 5883 5883 5882 5882 5881 5880 5879 5878 5877 5876 5874 5873 5872 5871 5870 5870 5869 5869 5868
5876 5876 5876 5876 5875 5876 5876 5877 5877 5877 5878 5877 5877 5878 5878 5878 5879 5879 5879 5879 5880 5881 5881 5882 5882 5882 5883 5883 5882 5882 5882 5881 5881 5881 5880 5879 5878 5877 5876 5874 5873 5872 5871 5870 5869 5868 5868 5867 5866
5873 5873 5873 5873 5873 5873 5873 5874 5874 5874 5874 5874 5874 5875 5875 5876 5876 5877 5877 5877 5878 5879 5879 5880 5880 5881 5881 5881 5881 5881 5881 5881 5880 5880 5879 5878 5877 5876 5875 5874 5872 5871 5870 5869 5868 5867 5866 5866 5865
5870 5870 5870 5870 5870 5870 5870 5870 5871 5871 5871 5871 5871 5872 5872 5873 5874 5875 5875 5875 5876 5877 5878 5878 5879 5879 5880 5880 5881 5881 5880 5880 5880 5879 5878 5877 5876 5875 5874 5873 5872 5871 5869 5868 5867 5866 5866 5865 5864
5867 5868 5868 5867 5867 5867 5867 5867 5868 5868 5868 5868 5868 5869 5869 5870 5871 5872 5873 5873 5874 5875 5876 5877 5878 5878 5879 5880 5880 5880 5879 5879 5879 5878 5877 5877 5876 5874 5873 5872 5871 5870 5869 5868 5867 5866 5865 5864 5864
5864 5864 5864 5864 5864 5864 5866 5865 5864 5864 5865 5865 5865 5866 5866 5867 5868 5869 5870 5871 5872 5873 5874 5875 5876 5877 5878 5879 5879 5879 5879 5878 5878 5877 5877 5876 5875 5874 5873 5872 5871 5870 5868 5867 5866 5866 5865 5864 5864
5860 5860 5860 5861 5860 5860 5861 5861 5861 5861 5862 5862 5862 5863 5863 5864 5865 5867 5868 5869 5870 5871 5872 5874 5875 5876 5877 5878 5878 5878 5878 5878 5877 5877 5876 5875 5875 5874 5873 5872 5871 5869 5868 5867 5866 5865 5865 5864 5864
5857 5856 5857 5857 5857 5857 5857 5857 5857 5857 5858 5858 5859 5860 5860 5861 5863 5864 5865 5867 5868 5869 5871 5872 5874 5875 5876 5877 5878 5878 5878 5877 5877 5877 5876 5875 5874 5874 5873 5872 5871 5869 5868 5867 5866 5866 5865 5864 5864
5853 5853 5853 5853 5853 5853 5853 5854 5854 5854 5855 5855 5856 5857 5857 5858 5860 5862 5863 5864 5866 5867 5870 5871 5873 5874 5875 5876 5877 5877 5877 5877 5877 5876 5876 5875 5874 5874 5873 5872 5871 5870 5869 5868 5867 5866 5865 5865 5865
5850 5849 5849 5849 5849 5850 5849 5850 5850 5851 5851 5852 5853 5853 5854 5856 5857 5859 5860 5862 5863 5865 5868 5869 5871 5872 5874 5875 5876 5876 5877 5877 5877 5876 5876 5875 5875 5874 5873 5872 5871 5870 5869 5868 5867 5867 5866 5865 5865
5846 5846 5846 5846 5846 5846 5846 5847 5847 5848 5848 5849 5849 5850 5851 5853 5854 5856 5858 5860 5861 5863 5866 5867 5869 5871 5872 5873 5875 5876 5876 5876 5876 5876 5876 5875 5875 5874 5873 5872 5871 5870 5870 5869 5868 5867 5867 5866 5866
5843 5843 5843 5842 5843 5843 5844 5844 5844 5844 5845 5846 5846 5847 5848 5850 5852 5854 5855 5857 5859 5861 5863 5865 5867 5869 5871 5872 5874 5875 5876 5876 5876 5876 5876 5875 5875 5874 5873 5872 5872 5871 5870 5869 5868 5868 5868 5867 5867
5840 5840 5840 5839 5839 5840 5840 5841 5842 5841 5842 5843 5843 5844 5845 5847 5849 5851 5853 5855 5857 5859 5861 5863 5866 5868 5869 5871 5873 5874 5875 5875 5876 5876 5876 5875 5875 5874 5874 5873 5872 5871 5870 5870 5869 5869 5868 5868 5868
5837 5837 5837 5836 5837 5838 5838 5838 5839 5839 5839 5840 5840 5841 5842 5844 5846 5848 5850 5852 5854 5857 5859 5861 5864 5866 5868 5870 5871 5873 5874 5874 5875 5875 5875 5875 5875 5875 5874 5874 5873 5872 5871 5871 5870 5870 5869 5869 5869
5834 5834 5834 5834 5834 5835 5835 5834 5836 5836 5836 5836 5836 5837 5839 5840 5843 5845 5847 5850 5852 5854 5857 5859 5862 5864 5866 5868 5870 5871 5873 5874 5874 5875 5875 5875 5875 5875 5875 5874 5873 5873 5872 5872 5871 5871 5870 5870 5870
5830 5831 5832 5832 5832 5832 5831 5831 5833 5833 5832 5833 5833 5834 5835 5837 5839 5842 5844 5847 5850 5852 5854 5857 5860 5862 5865 5866 5868 5870 5871 5872 5873 5874 5875 5875 5875 5875 5875 5874 5874 5873 5873 5872 5872 5872 5871 5871 5871
5827 5828 5828 5829 5828 5829 5829 5829 5829 5829 5829 5830 5830 5831 5832 5834 5836 5838 5841 5844 5847 5850 5852 5855 5858 5860 5863 5865 5867 5868 5870 5871 5872 5873 5874 5874 5875 5875 5875 5875 5874 5874 5874 5873 5873 5873 5872 5872 5871
5824 5824 5825 5825 5825 5825 5826 5826 5827 5826 5826 5827 5828 5829 5830 5831 5834 5836 5838 5841 5844 5847 5850 5853 5856 5858 5861 5863 5865 5867 5868 5870 5871 5872 5873 5874 5874 5874 5875 5875 5874 5874 5874 5874 5874 5873 5872 5872 5872
5821 5822 5822 5822 5822 5823 5823 5825 5824 5824 5824 5824 5825 5826 5828 5829 5831 5834 5836 5839 5842 5845 5848 5851 5854 5856 5859 5861 5863 5865 5866 5868 5869 5870 5872 5873 5873 5874 5874 5874 5875 5874 5874 5874 5874 5873 5873 5872 5872
5817 5818 5819 5820 5820 5819 5820 5824 5821 5822 5822 5822 5823 5824 5825 5827 5829 5831 5834 5837 5840 5842 5846 5848 5851 5854 5856 5859 5861 5863 5864 5866 5867 5869 5870 5871 5872 5873 5874 5874 5874 5874 5874 5874 5874 5873 5873 5872 5872